Vorticity
15 15 14 12 11 10 10 10 10 10 10 10 10 10 10 10 10 10 10 10 10 10 10 10 10 11 11 12 12 12 12 13 13 13 13 13 13 12 12 10 9 8 7 8 8 9 9 10 10 11 12 12 12 12 12 13 14 15 17 19 20 20 18 14 11 9 9 9 10
15 14 13 11 10 10 9 9 10 10 10 10 10 10 10 10 10 10 9 10 9 9 9 9 9 9 10 11 11 12 12 12 13 13 13 13 13 13 12 11 9 8 7 8 8 9 9 10 10 11 12 13 13 13 13 14 15 16 17 20 20 19 17 15 11 9 8 9 9
14 13 12 10 10 9 9 9 9 10 10 10 10 10 10 10 10 9 9 9 9 9 8 8 8 9 9 9 10 11 11 12 12 13 13 14 14 13 13 12 10 8 7 7 8 8 9 10 11 12 13 15 15 15 15 14 15 17 18 19 18 18 17 15 11 9 8 8 8
14 12 11 10 9 9 9 9 9 10 10 10 10 10 10 10 9 9 9 9 9 9 9 8 8 8 9 9 9 10 11 11 12 12 13 14 14 14 14 13 11 10 8 7 7 8 8 9 11 13 15 16 17 17 16 15 15 17 18 18 17 17 17 16 10 7 6 7 8
13 12 10 9 9 9 9 9 9 9 9 9 9 9 9 9 9 8 8 8 8 9 9 9 9 9 9 9 9 9 10 11 11 12 13 14 14 15 14 14 13 11 10 8 7 7 8 9 11 14 16 18 19 19 17 15 16 16 17 17 19 18 17 18 9 5 4 6 7
12 11 10 9 9 9 9 9 10 9 9 9 9 9 9 9 8 8 8 9 8 8 8 8 9 9 9 9 9 9 9 10 10 11 12 13 14 15 15 15 14 13 11 9 8 7 8 10 13 17 21 23 23 21 20 17 16 16 16 17 19 20 20 19 11 5 4 5 7
11 10 9 8 8 9 9 9 9 9 9 9 9 9 9 8 8 9 9 8 8 8 8 8 8 8 9 9 9 9 9 10 10 11 11 13 14 15 15 15 15 14 13 11 8 8 9 12 18 24 27 29 27 24 21 18 17 16 17 19 20 21 21 19 11 7 5 5 7
11 10 9 8 8 9 9 9 9 9 9 10 10 10 9 9 9 8 8 8 8 8 8 8 9 9 9 9 9 10 10 10 10 10 11 12 13 14 15 16 16 15 14 11 9 9 12 19 28 32 33 31 27 23 19 17 17 17 19 22 22 22 20 16 11 8 6 6 7
10 9 9 9 9 9 9 10 10 10 10 10 10 10 10 9 9 8 8 9 9 8 8 9 9 9 9 9 10 10 10 10 10 11 11 12 13 14 15 16 17 16 14 11 10 13 19 31 38 37 31 25 21 18 16 17 17 18 19 22 23 21 18 14 12 10 9 8 8
10 9 9 9 9 9 10 10 10 10 10 10 10 10 9 9 9 9 9 9 8 8 9 10 9 9 10 10 11 11 11 11 11 11 12 13 13 14 15 16 17 16 14 12 13 20 30 41 36 25 15 10 10 10 12 14 16 17 18 20 23 22 18 14 12 11 10 9 9
10 9 9 9 9 9 10 10 10 10 10 9 9 9 9 9 10 10 9 9 10 11 11 10 11 11 11 11 12 12 12 12 12 12 13 13 14 15 15 17 17 16 15 15 20 29 37 37 19 5 -2 -3 0 5 9 12 13 14 14 17 20 21 19 16 14 12 10 9 7
10 10 9 10 9 9 9 10 10 10 10 9 9 10 10 10 11 10 10 11 12 12 12 12 13 13 13 13 13 13 13 13 13 13 13 14 14 15 16 17 16 16 17 22 29 35 33 15 1 -4 -4 -3 -1 3 7 8 9 10 12 15 17 18 18 16 16 15 13 11 7
10 10 9 9 9 9 9 9 9 9 10 10 10 10 11 11 11 11 12 13 13 13 13 13 14 15 15 14 14 15 15 15 14 14 14 14 15 16 16 16 15 17 22 29 33 29 15 -9 -5 0 4 2 -0 2 5 5 7 11 15 16 16 15 14 14 15 16 16 14 7
10 10 10 9 9 9 9 9 10 10 10 11 11 11 11 11 12 12 13 13 14 14 14 15 16 16 17 16 16 16 16 16 16 15 15 15 15 16 16 16 15 20 29 35 28 12 -6 -17 1 11 13 7 2 2 5 4 9 15 20 20 16 14 12 12 13 15 17 15 9
10 10 10 9 10 10 10 10 10 10 11 11 11 11 12 12 12 13 14 15 16 16 16 17 17 18 18 18 18 18 18 18 17 16 16 16 16 17 17 15 16 26 35 34 15 -6 -19 -11 12 20 18 12 7 6 7 7 13 18 22 19 15 13 12 12 13 16 18 18 12
11 10 10 10 10 10 10 11 11 11 11 11 11 12 12 13 14 15 16 18 18 18 19 20 19 20 20 21 21 20 20 20 19 18 18 18 18 17 17 15 19 31 38 27 -1 -21 -23 1 21 25 21 17 13 11 10 11 16 20 20 17 14 13 12 11 13 17 20 20 17
11 11 10 10 10 10 10 10 11 11 11 11 12 13 14 14 16 18 20 20 19 20 21 21 21 22 22 23 23 23 23 23 22 21 20 20 19 18 17 16 24 34 37 19 -15 -31 -22 17 30 29 23 19 15 12 11 13 17 19 18 16 15 13 12 11 13 16 18 19 20
12 11 10 10 10 10 10 10 10 11 12 12 13 14 16 17 19 20 21 21 21 21 21 22 23 24 25 26 26 27 26 26 25 24 23 21 20 19 19 20 29 36 35 16 -26 -36 -15 32 36 31 23 18 14 11 11 13 15 15 15 15 14 13 12 11 12 14 15 16 19
11 11 10 10 10 10 10 10 11 12 13 13 15 16 19 21 22 21 21 21 21 22 22 23 25 27 29 30 30 30 29 28 27 25 24 22 21 21 23 27 34 36 32 15 -30 -28 2 37 34 28 20 14 12 11 11 11 9 9 10 11 10 9 9 8 10 11 12 13 17
11 11 10 10 10 10 10 11 12 13 14 15 17 19 22 23 22 21 20 20 21 22 24 25 27 29 32 33 33 32 30 29 27 25 24 22 23 26 30 33 31 27 18 4 -22 -4 24 28 25 22 19 16 14 12 10 8 6 6 8 8 7 6 5 4 7 8 9 11 16
11 10 10 9 10 11 12 13 14 14 15 17 20 22 23 22 20 19 18 19 21 23 24 25 27 29 32 34 32 31 29 28 26 24 23 23 29 32 33 28 21 13 2 -15 -9 19 36 13 14 17 18 19 18 16 14 11 10 10 11 10 9 7 6 6 8 9 10 12 16
11 10 10 10 11 12 13 14 14 15 17 19 21 22 22 20 17 16 17 19 21 23 23 23 25 27 29 30 29 28 27 26 24 23 24 30 35 32 24 16 17 12 1 -18 6 28 31 1 7 11 14 18 19 20 21 21 19 17 14 13 12 12 11 11 10 11 12 14 16
11 11 11 12 13 13 13 13 14 15 18 21 23 22 20 16 14 14 16 20 22 23 22 22 23 24 25 25 25 24 24 24 24 26 30 37 30 17 7 10 19 18 9 -5 21 26 18 5 12 15 15 17 21 26 31 30 23 18 15 13 13 13 12 11 10 10 12 14 16
12 12 12 13 13 13 13 13 14 17 20 23 23 20 16 12 11 13 17 22 23 23 21 21 22 23 23 22 22 22 23 25 28 32 35 33 9 -5 -5 15 20 20 17 15 25 19 13 25 29 26 21 20 28 33 32 22 15 12 12 12 13 13 12 10 8 8 8 11 14
13 13 13 13 13 12 12 13 16 19 22 24 22 17 12 10 10 13 18 22 23 21 20 20 22 23 23 22 22 23 25 27 32 36 32 14 -15 -21 -9 17 17 18 20 25 18 15 23 50 38 26 19 26 35 30 20 10 6 5 7 10 12 12 12 11 8 5 5 7 10
13 13 13 12 11 11 12 14 17 20 23 23 19 14 10 8 10 14 18 21 21 20 19 19 22 23 24 23 24 26 28 30 33 32 22 -2 -27 -28 -13 14 13 13 13 12 14 25 39 48 29 22 25 36 28 18 11 9 2 -0 2 5 8 10 11 11 8 6 4 6 7
13 13 12 11 11 12 13 14 18 21 23 23 17 12 9 8 10 13 17 20 18 17 16 18 21 24 25 26 26 27 28 29 30 24 13 -6 -26 -30 -19 6 7 9 8 0 21 31 34 37 33 33 32 29 18 13 9 4 -2 -3 -1 3 7 10 12 11 9 8 7 7 7
13 12 11 10 11 12 13 15 19 23 24 22 16 11 8 7 9 12 15 16 15 14 14 16 19 23 26 27 27 26 26 26 25 19 8 -5 -20 -28 -25 -7 -1 8 12 6 34 33 23 23 36 36 30 25 21 16 10 3 0 -0 1 5 9 12 13 12 10 9 8 7 8
12 11 11 11 12 12 13 16 21 23 23 21 15 10 7 6 9 11 13 14 14 13 12 11 15 20 25 28 26 25 23 23 22 16 7 -2 -13 -23 -27 -19 -9 2 14 26 43 37 22 12 33 35 31 29 28 23 16 12 8 6 6 9 13 15 14 11 9 7 6 6 8
12 12 12 12 12 12 14 17 20 23 23 22 16 10 6 5 7 10 12 13 13 10 6 4 9 15 22 28 27 24 21 20 19 14 7 2 -5 -17 -27 -28 -16 -5 10 36 48 39 19 2 22 30 31 30 29 27 25 22 16 14 15 19 21 18 14 8 5 4 4 6 8
12 12 12 12 12 13 14 15 20 23 25 24 18 11 5 4 7 10 12 14 12 8 4 2 6 11 19 27 28 26 22 20 18 13 7 4 0 -10 -22 -31 -22 -11 5 27 51 42 19 -2 7 18 27 30 26 22 20 17 15 17 21 24 17 11 6 2 1 2 3 5 6
13 13 12 13 13 12 13 15 21 26 28 26 19 11 5 3 7 11 14 16 13 10 7 5 6 9 15 23 27 27 24 20 17 12 8 6 5 -2 -14 -29 -27 -15 2 21 47 43 25 3 3 10 20 28 23 17 11 7 8 11 13 10 3 -1 -2 -2 -1 0 2 3 3
13 13 13 13 12 12 13 17 23 28 30 28 20 12 6 3 7 11 16 20 19 16 12 9 7 8 13 20 25 27 25 21 15 11 8 8 9 5 -5 -23 -28 -20 -4 18 38 42 33 11 7 10 16 21 12 4 -0 1 3 5 5 3 0 -2 -3 -3 -2 -1 -0 -0 -2
14 14 14 13 12 13 15 19 24 29 31 29 21 13 7 4 6 12 17 21 19 17 15 15 13 12 12 17 23 27 26 22 16 11 8 9 10 8 0 -12 -21 -21 -13 4 26 38 37 19 11 12 15 17 3 -8 -12 -7 -0 3 3 1 0 -1 -2 -3 -3 -2 -2 -3 -5
15 14 14 13 13 14 16 20 24 28 30 28 22 15 9 6 6 10 13 15 11 9 10 16 23 23 20 19 23 25 26 23 17 12 9 10 9 6 1 -4 -8 -15 -16 -5 15 30 35 24 14 9 9 12 6 -4 -12 -14 -9 -5 -1 -0 -0 -1 -1 -2 -2 -3 -4 -5 -7
15 14 14 13 14 15 17 20 24 27 29 28 22 16 11 7 6 8 10 10 4 0 1 8 26 32 30 23 23 23 23 22 18 16 14 12 9 3 -1 -2 4 -3 -10 -8 7 20 27 25 17 11 6 2 2 -0 -3 -6 -6 -5 -3 -1 -0 -0 -0 -1 -2 -3 -4 -5 -6
16 14 14 13 14 15 17 19 23 26 28 27 22 16 11 7 6 9 11 10 4 -2 -3 2 26 36 36 26 22 20 20 19 18 18 18 17 11 4 -1 -1 9 8 1 -8 1 10 17 21 17 15 12 4 -3 -6 -7 -7 -7 -6 -5 -4 -3 -2 -1 -1 -2 -3 -4 -4 -3
16 14 13 13 14 15 17 19 23 26 27 26 21 16 11 7 6 9 11 10 5 1 -1 1 27 38 37 25 20 18 17 17 16 18 19 20 15 7 1 1 10 14 10 -4 -2 4 10 14 11 12 14 13 5 -1 -6 -7 -6 -5 -4 -4 -3 -3 -2 -2 -2 -2 -2 -0 2
16 14 13 13 14 15 17 20 23 26 26 25 20 16 11 6 6 8 10 9 6 4 3 6 30 38 34 22 17 16 16 17 16 17 17 18 15 9 4 2 7 12 13 4 1 2 5 7 6 4 4 9 11 11 9 8 8 7 6 4 3 3 3 3 3 3 4 6 7
16 14 13 13 13 15 17 20 23 26 26 24 20 15 10 5 6 7 9 8 7 6 7 13 32 36 29 18 14 13 15 18 18 17 15 15 14 11 7 4 4 8 11 9 4 5 7 5 3 -1 -4 -3 4 9 13 15 16 16 15 13 11 10 9 9 10 10 10 10 9
16 15 14 13 13 15 17 20 24 26 26 24 20 14 9 4 5 7 8 8 7 8 11 19 31 31 24 13 10 10 13 17 18 17 15 14 14 13 11 9 7 7 9 12 6 9 12 7 5 1 -4 -7 -3 1 5 8 9 10 11 12 11 11 11 11 11 11 10 9 7
Height
3032 3030 3027 3024 3022 3019 3017 3015 3013 3010 3008 3005 3003 3001 2999 2997 2994 2993 2990 2988 2986 2984 2982 2980 2979 2977 2975 2973 2971 2969 2968 2966 2964 2963 2961 2960 2959 2957 2956 2955 2954 2953 2951 2950 2949 2948 2947 2946 2945 2944 2944 2943 2942 2941 2941 2940 2939 2939 2939 2938 2938 2938 2938 2938 2939 2939 2939 2940 2940
3031 3028 3026 3023 3021 3018 3016 3014 3011 3009 3006 3004 3001 2999 2997 2995 2993 2991 2989 2987 2984 2982 2980 2979 2977 2975 2973 2971 2969 2968 2966 2964 2962 2961 2959 2958 2957 2955 2954 2953 2952 2950 2949 2948 2947 2946 2944 2944 2943 2942 2941 2941 2940 2939 2939 2938 2937 2937 2936 2936 2936 2936 2936 2936 2937 2937 2938 2938 2938
3029 3026 3024 3022 3019 3017 3014 3012 3009 3007 3005 3002 3000 2998 2995 2993 2991 2989 2987 2985 2983 2980 2979 2976 2974 2973 2971 2969 2967 2966 2964 2962 2960 2959 2957 2956 2955 2953 2952 2951 2950 2949 2947 2946 2945 2944 2942 2941 2941 2940 2939 2939 2938 2937 2937 2936 2935 2935 2934 2934 2934 2934 2934 2934 2935 2936 2936 2937 2937
3027 3025 3022 3020 3017 3015 3012 3010 3008 3005 3003 3001 2998 2996 2994 2991 2989 2987 2985 2983 2981 2979 2976 2974 2973 2971 2969 2967 2965 2964 2962 2960 2958 2957 2955 2954 2953 2951 2950 2949 2948 2947 2945 2944 2943 2942 2940 2939 2939 2938 2937 2936 2936 2935 2934 2934 2933 2933 2932 2932 2932 2932 2932 2932 2933 2934 2935 2935 2935
3026 3023 3020 3018 3015 3013 3011 3008 3006 3004 3001 2999 2996 2994 2992 2989 2987 2985 2983 2981 2979 2976 2974 2972 2970 2968 2966 2965 2963 2961 2959 2958 2956 2954 2953 2952 2950 2949 2948 2947 2946 2944 2944 2942 2941 2940 2939 2937 2936 2935 2935 2934 2934 2933 2932 2931 2931 2930 2930 2930 2929 2929 2930 2930 2931 2932 2933 2933 2933
3024 3021 3019 3016 3014 3011 3009 3007 3004 3002 2999 2997 2994 2992 2990 2987 2985 2983 2980 2978 2976 2974 2972 2970 2968 2966 2964 2962 2960 2959 2957 2956 2954 2952 2951 2949 2948 2947 2946 2944 2944 2942 2941 2940 2939 2938 2937 2935 2934 2934 2933 2932 2931 2931 2930 2929 2929 2928 2928 2928 2928 2928 2928 2929 2929 2930 2931 2931 2931
3022 3019 3017 3014 3012 3010 3007 3005 3003 3000 2998 2995 2993 2990 2988 2985 2983 2981 2978 2976 2974 2972 2970 2968 2966 2964 2962 2960 2958 2956 2954 2953 2952 2950 2949 2947 2946 2944 2943 2942 2941 2940 2939 2938 2937 2936 2935 2934 2933 2932 2931 2930 2930 2929 2928 2928 2927 2926 2926 2926 2926 2926 2927 2927 2928 2929 2929 2929 2929
3021 3018 3015 3013 3010 3008 3006 3003 3001 2998 2996 2993 2991 2988 2986 2983 2981 2979 2976 2974 2972 2969 2967 2965 2963 2961 2959 2957 2955 2954 2952 2950 2949 2948 2946 2944 2943 2942 2941 2940 2939 2938 2937 2936 2935 2934 2933 2932 2931 2930 2929 2929 2929 2928 2927 2926 2925 2925 2924 2924 2924 2925 2925 2926 2926 2927 2927 2928 2928
3019 3017 3014 3012 3009 3007 3004 3002 2999 2996 2994 2991 2989 2986 2984 2981 2979 2976 2974 2972 2969 2967 2965 2963 2960 2959 2956 2954 2953 2951 2949 2948 2946 2945 2944 2942 2941 2940 2939 2938 2937 2936 2935 2934 2934 2933 2932 2931 2930 2929 2929 2928 2928 2927 2926 2925 2924 2924 2923 2923 2923 2923 2924 2924 2925 2925 2926 2926 2926
3018 3015 3013 3010 3008 3005 3002 3000 2997 2995 2992 2989 2987 2984 2982 2979 2977 2974 2972 2969 2967 2965 2962 2960 2958 2956 2954 2952 2950 2948 2947 2945 2944 2942 2941 2940 2939 2938 2937 2936 2935 2934 2933 2932 2932 2931 2930 2930 2929 2929 2928 2928 2927 2926 2925 2924 2923 2922 2922 2921 2921 2921 2922 2923 2923 2924 2924 2924 2924
3016 3014 3011 3009 3006 3003 3001 2998 2996 2993 2990 2988 2985 2983 2980 2977 2974 2972 2969 2967 2964 2962 2960 2957 2955 2953 2951 2949 2947 2946 2944 2942 2941 2939 2938 2937 2936 2935 2934 2934 2933 2932 2931 2931 2930 2929 2929 2929 2929 2929 2928 2927 2926 2925 2924 2923 2922 2921 2920 2919 2919 2920 2920 2921 2921 2922 2922 2922 2922
3015 3012 3009 3007 3004 3002 2999 2996 2994 2991 2989 2986 2983 2980 2978 2975 2972 2969 2967 2964 2962 2959 2957 2955 2952 2950 2948 2946 2944 2943 2941 2939 2938 2937 2936 2935 2934 2933 2933 2932 2931 2930 2930 2929 2929 2928 2928 2928 2928 2928 2927 2926 2925 2924 2923 2921 2920 2919 2918 2918 2918 2919 2919 2919 2920 2920 2920 2920 2921
3013 3011 3008 3005 3003 3000 2997 2994 2992 2989 2986 2984 2981 2978 2975 2972 2970 2967 2964 2962 2959 2957 2954 2952 2949 2947 2945 2943 2941 2940 2938 2937 2935 2934 2933 2932 2932 2931 2930 2930 2929 2929 2928 2928 2927 2927 2927 2928 2927 2926 2925 2924 2924 2922 2921 2919 2918 2918 2917 2917 2917 2918 2918 2918 2919 2919 2919 2919 2919
3012 3009 3006 3004 3001 2998 2995 2993 2990 2987 2984 2981 2978 2975 2973 2970 2967 2964 2962 2959 2957 2954 2952 2949 2947 2945 2942 2940 2938 2937 2935 2934 2933 2931 2930 2930 2929 2929 2929 2928 2928 2927 2927 2926 2926 2926 2927 2927 2926 2924 2923 2922 2922 2921 2919 2918 2918 2917 2917 2917 2917 2917 2917 2917 2917 2917 2917 2918 2919
3010 3008 3005 3002 2999 2996 2993 2990 2987 2984 2982 2979 2976 2973 2970 2967 2965 2962 2959 2956 2954 2951 2949 2946 2944 2942 2940 2938 2936 2934 2932 2931 2930 2929 2928 2928 2927 2927 2927 2926 2926 2926 2925 2925 2925 2926 2926 2926 2924 2923 2921 2921 2920 2919 2918 2918 2918 2917 2917 2917 2916 2916 2916 2916 2916 2916 2916 2917 2917
3009 3006 3003 3000 2997 2994 2991 2988 2985 2982 2979 2976 2974 2971 2968 2965 2962 2959 2957 2954 2951 2949 2946 2944 2941 2939 2937 2935 2933 2931 2929 2928 2927 2926 2926 2925 2925 2925 2925 2925 2924 2924 2924 2924 2924 2925 2925 2924 2922 2920 2919 2919 2919 2918 2918 2917 2917 2916 2916 2916 2916 2916 2915 2915 2915 2915 2915 2916 2916
3007 3004 3001 2998 2995 2992 2989 2986 2984 2980 2978 2974 2972 2969 2966 2963 2960 2957 2954 2952 2949 2946 2944 2941 2939 2936 2934 2932 2930 2928 2927 2925 2925 2924 2924 2924 2924 2924 2924 2924 2923 2923 2923 2923 2923 2924 2923 2922 2920 2918 2918 2918 2918 2917 2917 2916 2916 2915 2915 2915 2915 2915 2914 2914 2914 2914 2914 2914 2915
3005 3002 2999 2997 2994 2991 2988 2985 2982 2979 2976 2973 2970 2967 2964 2961 2958 2955 2953 2950 2947 2944 2942 2939 2936 2934 2931 2929 2927 2926 2924 2923 2923 2922 2922 2922 2922 2922 2922 2922 2922 2922 2922 2922 2922 2922 2922 2919 2917 2916 2916 2916 2916 2916 2916 2915 2915 2914 2914 2914 2914 2914 2914 2914 2914 2914 2914 2914 2914
3004 3001 2998 2995 2992 2989 2986 2984 2980 2977 2974 2971 2968 2965 2962 2959 2956 2954 2951 2948 2945 2942 2939 2937 2934 2931 2929 2927 2925 2923 2922 2921 2921 2921 2921 2921 2921 2921 2921 2921 2921 2921 2921 2921 2921 2921 2920 2917 2915 2914 2915 2915 2915 2915 2915 2914 2914 2914 2914 2914 2913 2913 2913 2913 2913 2913 2913 2913 2913
3002 2999 2997 2994 2991 2988 2985 2982 2979 2976 2973 2969 2967 2964 2960 2957 2954 2952 2949 2946 2943 2940 2937 2934 2932 2929 2927 2925 2923 2922 2920 2920 2920 2920 2920 2920 2920 2920 2921 2921 2921 2921 2921 2921 2921 2920 2918 2915 2914 2913 2914 2914 2914 2914 2913 2913 2913 2913 2913 2912 2912 2912 2912 2912 2912 2911 2912 2912 2912
3001 2998 2995 2993 2990 2987 2984 2981 2978 2974 2971 2968 2965 2962 2959 2956 2953 2950 2948 2945 2942 2939 2936 2933 2930 2928 2925 2923 2922 2920 2920 2919 2919 2919 2919 2919 2920 2920 2920 2921 2921 2921 2920 2920 2920 2918 2915 2914 2912 2912 2912 2912 2912 2912 2912 2912 2912 2912 2912 2911 2911 2911 2911 2910 2911 2911 2911 2911 2910
3000 2997 2994 2991 2989 2986 2983 2979 2976 2973 2969 2966 2963 2960 2958 2955 2952 2950 2947 2944 2941 2938 2935 2932 2930 2927 2925 2923 2921 2920 2919 2919 2919 2919 2919 2919 2920 2920 2921 2921 2921 2921 2920 2919 2918 2915 2913 2912 2911 2911 2911 2911 2910 2910 2910 2910 2911 2911 2910 2910 2910 2910 2910 2910 2910 2910 2910 2910 2909
2999 2996 2994 2990 2988 2984 2981 2978 2975 2971 2968 2965 2962 2959 2957 2954 2952 2949 2946 2944 2940 2938 2935 2932 2929 2927 2925 2923 2921 2920 2919 2919 2919 2919 2919 2919 2920 2921 2921 2921 2921 2921 2920 2919 2916 2913 2911 2911 2911 2910 2909 2909 2909 2909 2909 2910 2910 2910 2909 2909 2909 2909 2909 2909 2910 2910 2909 2909 2909
2999 2995 2992 2989 2986 2983 2980 2977 2974 2970 2967 2964 2961 2959 2956 2954 2951 2949 2946 2943 2940 2937 2935 2932 2929 2927 2925 2924 2922 2921 2920 2919 2919 2919 2919 2920 2920 2921 2921 2921 2921 2921 2919 2918 2914 2912 2912 2913 2911 2909 2909 2909 2909 2909 2910 2910 2910 2909 2908 2909 2909 2909 2909 2909 2909 2909 2909 2909 2908
2998 2994 2991 2988 2985 2982 2979 2976 2972 2969 2966 2963 2961 2958 2956 2954 2951 2948 2946 2943 2940 2937 2935 2932 2930 2927 2925 2924 2922 2921 2920 2920 2919 2919 2919 2919 2920 2920 2920 2921 2920 2919 2918 2916 2913 2914 2916 2915 2911 2909 2909 2909 2909 2910 2911 2912 2910 2908 2908 2908 2909 2909 2909 2909 2909 2909 2909 2909 2908
2997 2993 2990 2987 2984 2981 2978 2975 2971 2968 2965 2963 2960 2958 2956 2953 2951 2948 2945 2943 2940 2937 2935 2932 2930 2928 2926 2924 2923 2922 2921 2920 2920 2919 2919 2919 2919 2920 2920 2920 2919 2918 2916 2914 2914 2917 2919 2914 2910 2909 2909 2909 2910 2911 2912 2911 2909 2908 2908 2909 2909 2909 2909 2909 2909 2909 2909 2909 2908
2995 2992 2989 2986 2983 2980 2977 2974 2971 2968 2965 2962 2960 2958 2956 2953 2951 2948 2945 2943 2940 2938 2935 2933 2930 2928 2926 2925 2924 2923 2922 2921 2920 2920 2919 2919 2919 2920 2920 2919 2918 2916 2914 2914 2918 2919 2918 2915 2911 2910 2909 2910 2910 2910 2909 2908 2908 2908 2908 2909 2909 2909 2909 2909 2909 2909 2908 2908 2908
2994 2991 2989 2986 2983 2980 2977 2974 2970 2967 2964 2962 2960 2958 2956 2953 2951 2948 2945 2943 2940 2938 2936 2934 2931 2929 2927 2926 2924 2924 2923 2922 2921 2920 2919 2919 2919 2920 2920 2919 2917 2914 2914 2919 2921 2919 2917 2917 2914 2911 2910 2910 2909 2909 2908 2907 2907 2908 2909 2909 2909 2909 2909 2909 2909 2908 2908 2908 2907
2994 2991 2988 2985 2982 2979 2976 2973 2970 2967 2964 2962 2960 2958 2956 2954 2951 2949 2946 2943 2941 2939 2936 2934 2932 2930 2929 2927 2925 2924 2924 2923 2922 2921 2920 2920 2920 2920 2920 2918 2917 2914 2915 2920 2920 2918 2915 2916 2913 2911 2910 2909 2909 2908 2908 2907 2907 2908 2908 2909 2909 2909 2909 2908 2908 2908 2908 2907 2907
2993 2990 2988 2985 2982 2979 2976 2973 2970 2967 2964 2962 2960 2958 2956 2954 2951 2949 2946 2944 2941 2939 2938 2936 2934 2932 2930 2928 2927 2925 2924 2924 2923 2922 2921 2921 2920 2920 2919 2918 2916 2915 2916 2920 2919 2917 2914 2914 2913 2911 2910 2909 2909 2908 2908 2907 2907 2907 2908 2909 2909 2909 2909 2908 2908 2908 2907 2907 2907
2993 2990 2987 2984 2981 2979 2976 2973 2970 2967 2964 2962 2960 2958 2956 2954 2951 2949 2946 2944 2942 2940 2939 2937 2935 2933 2931 2929 2928 2927 2926 2924 2924 2923 2922 2921 2921 2920 2920 2918 2917 2916 2918 2922 2919 2916 2914 2914 2914 2913 2912 2910 2908 2907 2907 2907 2907 2908 2909 2909 2909 2909 2909 2909 2908 2908 2907 2907 2906
2993 2990 2987 2984 2981 2979 2976 2973 2970 2967 2965 2962 2960 2958 2956 2954 2952 2949 2947 2945 2943 2941 2939 2938 2936 2934 2932 2930 2929 2928 2927 2926 2924 2924 2923 2923 2922 2921 2920 2919 2918 2917 2919 2923 2920 2916 2915 2915 2915 2915 2914 2912 2910 2909 2908 2907 2908 2909 2910 2910 2910 2909 2909 2909 2908 2908 2907 2907 2906
2993 2990 2987 2984 2981 2979 2976 2973 2970 2968 2965 2962 2960 2958 2956 2954 2952 2950 2948 2946 2944 2942 2940 2939 2936 2934 2933 2931 2930 2929 2928 2927 2926 2925 2924 2924 2923 2922 2921 2920 2919 2918 2919 2922 2921 2918 2916 2915 2915 2915 2915 2914 2913 2910 2909 2909 2909 2910 2910 2910 2910 2910 2909 2909 2908 2908 2908 2907 2906
2993 2990 2987 2984 2982 2979 2976 2974 2970 2968 2965 2962 2960 2958 2956 2954 2953 2951 2949 2947 2945 2944 2942 2940 2938 2936 2934 2932 2931 2929 2929 2928 2927 2926 2926 2925 2924 2923 2922 2921 2920 2919 2920 2921 2922 2920 2917 2916 2916 2916 2916 2916 2914 2912 2911 2911 2910 2910 2910 2910 2910 2910 2909 2909 2908 2908 2908 2907 2907
2993 2990 2987 2985 2982 2979 2976 2973 2970 2967 2964 2962 2960 2959 2957 2955 2953 2951 2949 2948 2946 2944 2942 2940 2939 2937 2935 2933 2932 2930 2930 2929 2928 2928 2927 2926 2925 2924 2923 2922 2921 2920 2920 2921 2922 2921 2919 2916 2916 2916 2916 2916 2915 2914 2913 2913 2912 2911 2911 2911 2910 2910 2909 2909 2909 2908 2907 2907 2907
2993 2990 2988 2985 2982 2979 2976 2973 2970 2967 2964 2962 2960 2959 2957 2955 2954 2952 2950 2948 2946 2944 2942 2940 2939 2937 2935 2934 2932 2931 2930 2930 2929 2929 2928 2927 2926 2925 2924 2923 2922 2922 2921 2921 2921 2921 2919 2917 2916 2916 2915 2915 2914 2914 2914 2913 2913 2912 2912 2911 2911 2910 2910 2909 2909 2908 2908 2907 2906
2993 2990 2988 2985 2982 2979 2976 2973 2969 2967 2964 2962 2960 2959 2957 2956 2954 2953 2950 2948 2945 2944 2942 2941 2939 2937 2936 2934 2933 2932 2931 2931 2930 2930 2929 2928 2927 2926 2925 2924 2923 2923 2922 2922 2922 2921 2920 2918 2917 2916 2916 2915 2914 2914 2913 2913 2913 2912 2912 2912 2911 2911 2910 2909 2909 2908 2908 2907 2906
2994 2991 2988 2985 2982 2979 2976 2973 2969 2967 2965 2963 2961 2959 2958 2957 2955 2953 2950 2948 2946 2944 2943 2942 2940 2938 2936 2935 2934 2934 2933 2932 2931 2930 2930 2929 2929 2928 2927 2925 2924 2924 2923 2923 2922 2922 2921 2919 2918 2917 2917 2916 2915 2914 2914 2914 2913 2913 2912 2912 2911 2911 2910 2910 2909 2909 2908 2907 2907
2994 2992 2989 2986 2983 2979 2976 2973 2970 2967 2965 2963 2961 2960 2959 2957 2955 2954 2951 2949 2947 2946 2944 2943 2941 2939 2938 2936 2935 2935 2934 2933 2932 2931 2931 2930 2929 2929 2928 2927 2926 2924 2924 2924 2923 2923 2922 2920 2919 2918 2918 2917 2916 2915 2915 2914 2914 2913 2913 2912 2912 2911 2910 2910 2909 2909 2908 2907 2907
2995 2992 2989 2986 2983 2979 2976 2973 2970 2968 2966 2964 2962 2960 2959 2958 2956 2954 2952 2950 2948 2947 2945 2944 2942 2940 2939 2938 2937 2936 2935 2934 2934 2933 2932 2931 2930 2930 2929 2928 2927 2926 2925 2924 2924 2924 2923 2922 2920 2919 2918 2917 2916 2915 2914 2914 2914 2913 2913 2912 2911 2911 2910 2910 2909 2909 2908 2907 2907
2995 2993 2989 2986 2983 2979 2977 2974 2971 2969 2966 2964 2963 2961 2960 2959 2957 2955 2953 2951 2949 2948 2946 2945 2943 2941 2940 2939 2938 2937 2936 2936 2935 2934 2933 2932 2931 2931 2930 2929 2928 2927 2926 2925 2925 2924 2924 2923 2921 2920 2919 2918 2917 2915 2914 2914 2913 2912 2912 2911 2911 2910 2910 2909 2909 2909 2908 2907 2907